Regional Weather Roundup
Issued by NWS

Home | Current Version | Previous Version | Graphics & Text | Print | Product List | Glossary Off
Versions: 1 2 3 4 5 6 7 8 9 10 11 12 13 14 15 16 17 18 19 20 21 22 23 24 25 26 27 28 29 30 31 32 33 34 35 36 37 38 39 40 41 42 43 44 45 46 47 48 49 50

000
ASUS43 KTOP 040459
RWRKS

WEATHER ROUNDUP FOR KANSAS
NATIONAL WEATHER SERVICE GOODLAND KS
1200 AM CDT FRI SEP 04 2015

NOTE:  "FAIR" INDICATES FEW OR NO CLOUDS BELOW 12,000 FEET WITH NO
SIGNIFICANT WEATHER AND/OR OBSTRUCTIONS TO VISIBILITY.

KSZ001>006-013>018-027>032-041>047-040600-
NORTHWEST KANSAS

CITY           SKY/WX    TMP DP  RH WIND       PRES   REMARKS
GOODLAND       MOCLDY    74  54  49 VRB3      29.86R
HAYS           MOCLDY    84  57  39 S16G22    29.82S
HILL CITY      CLOUDY    86  59  39 S16G28    29.80S
RUSSELL        MOCLDY    82  60  47 S18       29.81S
$$

KSZ061>065-074>080-084>089-040600-
SOUTHWEST KANSAS

CITY           SKY/WX    TMP DP  RH WIND       PRES   REMARKS
DODGE CITY     MOCLDY    78  57  48 S17       29.87S
ELKHART          N/A     75  55  49 S13         N/A
GARDEN CITY    PTCLDY    76  57  51 S9        29.85S
GREAT BEND     PTCLDY    81  57  44 S17       29.84S
LIBERAL        PTCLDY    79  55  44 S16       29.90S
$$

KSZ066>073-081>083-090>101-040600-
SOUTHEAST KANSAS

CITY           SKY/WX    TMP DP  RH WIND       PRES   REMARKS
CHANUTE        PTCLDY    73  68  84 SE7       29.93R
COFFEYVILLE    PTCLDY    74  69  85 SE6       29.92R
HUTCHINSON     CLOUDY    78  64  61 SE9       29.87S
NEWTON         CLOUDY    75  63  64 S10       29.92S
PARSONS        PTCLDY    76  69  79 SE3       29.93S
WICHITA INTL   MOCLDY    78  66  66 S13       29.88S
WICHITA JABRA  MOCLDY    78  65  63 S10       29.89S
WINFIELD       PTCLDY    77  66  68 SE9       29.91S
$$

KSZ007>012-019>026-033>040-048>060-102>105-040600-
NORTHEAST KANSAS

CITY           SKY/WX    TMP DP  RH WIND       PRES   REMARKS
CONCORDIA      CLOUDY    79  64  60 S14       29.85S
EMPORIA        PTCLDY    75  67  76 S12       29.91R
LAWRENCE       MOCLDY    73  69  87 SE7       29.91S
MANHATTAN      PTCLDY    78  68  71 S6        29.87S
OLATHE IND     MOCLDY    73  68  84 S7        29.94R
OLATHE EXE     MOCLDY    73  68  84 S5        29.93R
SALINA         CLOUDY    81  65  58 SE14      29.84F
TOPEKA BILLARD MOCLDY    76  68  76 SE6       29.90S
TOPEKA FORBES  PTCLDY    75  68  78 SE6       29.91R
$$


USA.gov is the U.S. government's official web portal to all federal, state and local government web resources and services.